Weather History for Defuniak Springs, Defuniak Sp, FL

Change the Weather History Date:

Thursday, August 14, 2014

  Actual Average (KCEW) Record (KCEW)
Temperature  
Mean Temperature 80 °F -  
Max Temperature 90 °F 91 °F 99 °F (2007)
Min Temperature 70 °F 69 °F 61 °F (2004)
Cooling Degree Days 15    
Growing Degree Days 30 (Base 50)    
Moisture  
Dew Point 68 °F    
Average Humidity 67    
Maximum Humidity 89    
Minimum Humidity 45    
Precipitation  
Precipitation 0.00 in - - ()
Sea Level Pressure  
Sea Level Pressure 29.99 in    
Wind  
Wind Speed 4 mph (North)    
Max Wind Speed 9 mph    
Max Gust Speed -    
Visibility 10 miles    
Events      
Averages and records for this station are not official NWS values.
T = Trace of Precipitation, MM = Missing Value Source: NWS Daily Summary

Daily Weather History Graph

Daily Weather History Graph

Search for Another Location

Airport:

Trip Planner

Search our weather history database for the weather conditions in past years. The results will help you decide how hot, cold, wet, or windy it might be!

Date:

Astronomy

Aug. 14, 2014 Rise Set
Actual Time 6:10 AM CDT 7:27 PM CDT
Civil Twilight 5:44 AM CDT 7:53 PM CDT
Nautical Twilight 5:14 AM CDT 8:23 PM CDT
Astronomical Twilight 4:43 AM CDT 8:54 PM CDT
Moon 10:14 PM CDT (8/14) 10:24 AM CDT (8/14)
Length of Visible Light 14h 08m
Length of Day
13h 17m
Waning Gibbous, 79% of the Moon is Illuminated
Aug 14
Waning Gibbous
Aug 17
Last Quarter
Aug 25
New
Sep 2
First Quarter
Sep 8
Full

Hourly Weather History & Observations

Time (CDT) Temp. Heat Index Dew Point Humidity Pressure Visibility Wind Dir Wind Speed Gust Speed Precip Events Conditions
12:15 AM 78.8 °F - 71.6 °F 78% 29.99 in 10.0 mi North 5.8 mph - N/A   Mostly Cloudy
12:35 AM 78.8 °F - 70.2 °F 75% 29.98 in 10.0 mi NNE 4.6 mph - N/A   Scattered Clouds
12:55 AM 78.8 °F - 68.2 °F 70% 29.98 in 10.0 mi NNE 4.6 mph - N/A   Scattered Clouds
1:15 AM 77.0 °F - 69.3 °F 77% 29.98 in 10.0 mi NNW 3.5 mph - N/A   Clear
1:35 AM 75.7 °F - 69.6 °F 81% 29.98 in 10.0 mi North 3.5 mph - N/A   Clear
1:55 AM 74.8 °F - 70.0 °F 85% 29.98 in 10.0 mi North 4.6 mph - N/A   Clear
2:15 AM 75.2 °F - 70.0 °F 84% 29.98 in 10.0 mi North 4.6 mph - N/A   Clear
2:35 AM 74.8 °F - 70.2 °F 85% 29.98 in 10.0 mi NNW 4.6 mph - N/A   Clear
2:55 AM 74.3 °F - 70.5 °F 88% 29.98 in 10.0 mi North 3.5 mph - N/A   Clear
3:15 AM 73.8 °F - 70.2 °F 88% 29.97 in 10.0 mi North 5.8 mph - N/A   Clear
3:35 AM 73.8 °F - 69.4 °F 86% 29.98 in 10.0 mi North 5.8 mph - N/A   Clear
3:55 AM 73.4 °F - 68.9 °F 86% 29.98 in 10.0 mi North 5.8 mph - N/A   Clear
4:15 AM 73.4 °F - 68.4 °F 84% 29.98 in 10.0 mi North 5.8 mph - N/A   Clear
4:35 AM 72.7 °F - 68.4 °F 86% 29.98 in 10.0 mi North 5.8 mph - N/A   Clear
4:55 AM 72.3 °F - 67.6 °F 85% 29.99 in 10.0 mi North 4.6 mph - N/A   Clear
5:15 AM 72.0 °F - 67.6 °F 86% 29.99 in 10.0 mi North 4.6 mph - N/A   Clear
5:35 AM 71.1 °F - 67.5 °F 88% 30.00 in 10.0 mi North 4.6 mph - N/A   Clear
5:55 AM 70.7 °F - 67.3 °F 89% 30.00 in 10.0 mi NNE 4.6 mph - N/A   Clear
6:15 AM 71.1 °F - 66.4 °F 85% 30.00 in 10.0 mi NNE 4.6 mph - N/A   Clear
6:35 AM 70.7 °F - 66.7 °F 87% 30.01 in 10.0 mi North 3.5 mph - N/A   Clear
6:55 AM 71.4 °F - 66.6 °F 85% 30.01 in 10.0 mi North 4.6 mph - N/A   Clear
7:15 AM 72.0 °F - 66.2 °F 82% 30.02 in 10.0 mi Calm Calm - N/A   Clear
7:35 AM 75.2 °F - 65.1 °F 71% 30.03 in 10.0 mi NE 4.6 mph - N/A   Clear
7:55 AM 76.3 °F - 63.0 °F 63% 30.03 in 10.0 mi NE 6.9 mph - N/A   Clear
8:15 AM 77.4 °F - 62.4 °F 60% 30.03 in 10.0 mi NE 6.9 mph - N/A   Clear
8:35 AM 78.6 °F - 63.3 °F 59% 30.03 in 10.0 mi NE 6.9 mph - N/A   Clear
8:55 AM 80.2 °F 81.5 °F 63.0 °F 55% 30.04 in 10.0 mi East 6.9 mph - N/A   Clear
9:15 AM 81.3 °F 82.3 °F 62.4 °F 52% 30.03 in 10.0 mi East 5.8 mph - N/A   Clear
9:35 AM 82.0 °F 83.4 °F 64.0 °F 54% 30.04 in 10.0 mi SE 5.8 mph - N/A   Clear
9:55 AM 84.2 °F 85.6 °F 64.0 °F 51% 30.04 in 10.0 mi SE 3.5 mph - N/A   Clear
10:15 AM 85.1 °F 86.6 °F 64.6 °F 50% 30.05 in 10.0 mi Calm Calm - N/A   Scattered Clouds
10:35 AM 86.0 °F 86.8 °F 63.1 °F 46% 30.05 in 10.0 mi NNE 3.5 mph - N/A   Mostly Cloudy
10:55 AM 87.1 °F 88.0 °F 63.7 °F 45% 30.04 in 10.0 mi Calm Calm - N/A   Scattered Clouds
11:15 AM 86.7 °F 88.1 °F 64.0 °F 47% 30.04 in 10.0 mi Calm Calm - N/A   Mostly Cloudy
11:35 AM 86.2 °F 87.6 °F 64.6 °F 48% 30.03 in 10.0 mi Calm Calm - N/A   Overcast
11:55 AM 87.3 °F 88.9 °F 64.8 °F 47% 30.03 in 10.0 mi North 3.5 mph - N/A   Overcast
12:15 PM 86.7 °F 88.7 °F 65.5 °F 49% 30.02 in 10.0 mi WSW 3.5 mph - N/A   Overcast
12:35 PM 87.8 °F 90.0 °F 65.8 °F 48% 30.02 in 10.0 mi Calm Calm - N/A   Mostly Cloudy
12:55 PM 87.8 °F 90.0 °F 66.0 °F 48% 30.01 in 10.0 mi NW 4.6 mph - N/A   Scattered Clouds
1:15 PM 88.5 °F 91.2 °F 66.6 °F 48% 30.00 in 10.0 mi West 3.5 mph - N/A   Scattered Clouds
1:35 PM 87.4 °F 89.8 °F 66.0 °F 49% 30.00 in 10.0 mi Calm Calm - N/A   Mostly Cloudy
1:55 PM 88.0 °F 90.7 °F 66.6 °F 49% 29.99 in 10.0 mi Calm Calm - N/A   Scattered Clouds
2:15 PM 89.4 °F 91.9 °F 66.4 °F 46% 29.98 in 10.0 mi West 3.5 mph - N/A   Mostly Cloudy
2:35 PM 88.3 °F 90.5 °F 66.0 °F 47% 29.97 in 10.0 mi Calm Calm - N/A   Scattered Clouds
2:55 PM 89.6 °F 92.2 °F 66.6 °F 46% 29.97 in 10.0 mi NNE 3.5 mph - N/A   Scattered Clouds
3:15 PM 90.0 °F 93.2 °F 67.3 °F 47% 29.97 in 10.0 mi NNW 6.9 mph - N/A   Scattered Clouds
3:35 PM 88.9 °F 92.2 °F 67.5 °F 49% 29.96 in 10.0 mi NNW 9.2 mph - N/A   Scattered Clouds
3:55 PM 88.9 °F 92.2 °F 67.5 °F 49% 29.96 in 10.0 mi NNW 4.6 mph - N/A   Mostly Cloudy
4:15 PM 88.2 °F 91.3 °F 67.5 °F 50% 29.96 in 10.0 mi Calm Calm - N/A   Mostly Cloudy
4:35 PM 87.8 °F 91.1 °F 67.6 °F 51% 29.95 in 10.0 mi North 5.8 mph - N/A   Mostly Cloudy
4:55 PM 87.8 °F 91.1 °F 67.8 °F 51% 29.95 in 10.0 mi NNE 3.5 mph - N/A   Mostly Cloudy
5:15 PM 87.4 °F 90.5 °F 67.5 °F 51% 29.95 in 10.0 mi North 5.8 mph - N/A   Mostly Cloudy
5:35 PM 88.2 °F 91.3 °F 67.6 °F 50% 29.95 in 10.0 mi NW 4.6 mph - N/A   Overcast
5:55 PM 88.2 °F 91.3 °F 67.5 °F 50% 29.95 in 10.0 mi NNW 5.8 mph - N/A   Mostly Cloudy
6:15 PM 88.0 °F 91.0 °F 67.5 °F 50% 29.95 in 10.0 mi WNW 3.5 mph - N/A   Scattered Clouds
6:35 PM 86.7 °F 89.6 °F 67.3 °F 52% 29.95 in 10.0 mi Calm Calm - N/A   Mostly Cloudy
6:55 PM 84.9 °F 89.7 °F 70.5 °F 62% 29.95 in 10.0 mi Calm Calm - N/A   Overcast
7:15 PM 84.9 °F 90.4 °F 71.6 °F 64% 29.96 in 10.0 mi Calm Calm - N/A   Overcast
7:35 PM 82.2 °F 87.6 °F 72.9 °F 73% 29.96 in 10.0 mi Calm Calm - N/A   Overcast
7:55 PM 82.2 °F 87.3 °F 72.3 °F 72% 29.97 in 10.0 mi SW 4.6 mph - N/A   Overcast
8:15 PM 81.7 °F 86.3 °F 72.0 °F 72% 29.97 in 10.0 mi SW 3.5 mph - N/A   Scattered Clouds
8:35 PM 79.7 °F - 72.0 °F 77% 29.98 in 10.0 mi SW 3.5 mph - N/A   Scattered Clouds
8:55 PM 79.7 °F - 72.0 °F 77% 29.99 in 10.0 mi Calm Calm - N/A   Mostly Cloudy
9:15 PM 78.3 °F - 72.5 °F 82% 29.99 in 10.0 mi Calm Calm - N/A   Mostly Cloudy
9:35 PM 77.9 °F - 72.3 °F 83% 29.99 in 10.0 mi Calm Calm - N/A   Scattered Clouds
9:55 PM 77.7 °F - 72.1 °F 83% 29.99 in 10.0 mi Calm Calm - N/A   Mostly Cloudy
10:15 PM 78.3 °F - 71.8 °F 80% 29.99 in 10.0 mi West 3.5 mph - N/A   Scattered Clouds
10:35 PM 78.1 °F - 71.6 °F 80% 30.00 in 10.0 mi NW 3.5 mph - N/A   Scattered Clouds
10:55 PM 77.5 °F - 71.8 °F 82% 30.00 in 10.0 mi NNW 4.6 mph - N/A   Scattered Clouds
11:15 PM 77.0 °F - 71.8 °F 84% 30.00 in 10.0 mi NW 4.6 mph - N/A   Clear
11:35 PM 76.6 °F - 71.2 °F 83% 30.00 in 10.0 mi NW 4.6 mph - N/A   Clear
11:55 PM 76.1 °F - 70.9 °F 84% 30.00 in 10.0 mi NW 5.8 mph - N/A   Clear